Flag Weather past 2 weeks in Pori, Finland

Now
36 °F

Fog.


Feels Like: 33 °F
Forecast: 28 / 36 °F
Wind: 3 mph from Southeast

Location: Pori Airport

Current Time: Nov 28, 2014 at 3:59:06 AM

Latest Report: Nov 28, 2014 at 3:20 AM


Visibility: 0 mi

Pressure: 30.36 "Hg

Humidity: 100%

Dew point: 36 °F

Location of PoriLocation

Historic Weather in Pori — Graph

°F

Pori temperature yesterday

Maximum temperature yesterday: 39 °F (at 1:20 PM)
Minimum temperature yesterday: 34 °F (at 12:20 AM)
Average temperature yesterday: 36 °F

Past Weeks' High & Low Weather Summary

 TemperatureHumidityPressure
High43 °F (Nov 25, 12:50 PM)100% (Nov 13, 2:20 AM)30.60 "Hg (Nov 13, 2:20 AM)
Low25 °F (Nov 20, 7:50 AM)75% (Nov 17, 12:20 PM)30.01 "Hg (Nov 24, 8:20 PM)
Average34 °F93%30.36 "Hg
* Reported Nov 13 2:20 AM — Nov 28 2:50 AM, Pori, Weather by CustomWeather, © 2014

Note: Actual official high and low records may vary slightly from our data, if they occured in-between our weather recording intervals... More about our weather records

Advertising

Pori weather history for previous 24 hours

 ConditionsComfort  
Time TempWeatherWind HumidityBarometerVisibility
2:50 AM
Nov 28
36 °FFog.2 mph100%30.36 "Hg0 mi
2:20 AM36 °FFog.3 mph100%30.36 "Hg1 mi
1:50 AM36 °FMostly cloudy.6 mph100%30.36 "Hg5 mi
1:20 AM37 °FFog.6 mph100%30.36 "Hg1 mi
12:50 AM37 °FFog.5 mph100%30.36 "Hg1 mi
12:20 AM37 °FFog.1 mph100%30.33 "Hg1 mi
11:50 PM
Nov 27
37 °FFog.No wind100%30.33 "Hg3 mi
11:20 PM37 °FFog.1 mph100%30.33 "Hg3 mi
10:50 PM37 °FMostly cloudy.3 mph100%30.33 "Hg4 mi
10:20 PM37 °FMostly cloudy.7 mph100%30.33 "Hg4 mi
9:50 PM37 °FMostly cloudy.5 mph100%30.33 "Hg4 mi
9:20 PM37 °FLow clouds.5 mph100%30.30 "Hg6 mi
8:50 PM37 °FMostly cloudy.2 mph100%30.30 "Hg6 mi
8:20 PM37 °FMostly cloudy.5 mph100%30.30 "HgN/A
7:50 PM37 °FLow clouds.5 mph100%30.30 "HgN/A
7:20 PM37 °FOvercast.5 mph100%30.30 "HgN/A
6:50 PM37 °FOvercast.7 mph100%30.27 "HgN/A
6:20 PM37 °FOvercast.6 mph100%30.27 "HgN/A
5:50 PM37 °FOvercast.3 mph100%30.27 "HgN/A
5:20 PM37 °FOvercast.2 mph100%30.27 "HgN/A
4:50 PM37 °FOvercast.6 mph100%30.27 "HgN/A
4:20 PM37 °FOvercast.5 mph93%30.27 "HgN/A
3:50 PM37 °FOvercast.1 mph93%30.27 "HgN/A
3:20 PM37 °FOvercast.No wind100%30.27 "HgN/A
2:50 PM37 °FMostly cloudy.3 mph100%30.27 "HgN/A
2:20 PM37 °FDrizzle. Overcast.3 mph100%30.27 "Hg4 mi
1:50 PM39 °FMostly cloudy.6 mph93%30.27 "HgN/A
1:20 PM39 °FMostly cloudy.3 mph93%30.27 "HgN/A
12:50 PM37 °FLight rain. Overcast.3 mph100%30.27 "HgN/A
12:20 PM37 °FOvercast.3 mph100%30.27 "HgN/A
11:50 AM37 °FPartly sunny.3 mph100%30.27 "HgN/A
11:20 AM36 °FPartly sunny.3 mph100%30.27 "Hg6 mi
10:20 AM36 °FPartly sunny.3 mph100%30.24 "Hg4 mi
9:50 AM36 °FPartly sunny.3 mph100%30.24 "Hg5 mi
9:20 AM36 °FPartly sunny.5 mph100%30.24 "HgN/A
8:50 AM36 °FPassing clouds.5 mph100%30.24 "Hg6 mi
8:20 AM36 °FPassing clouds.5 mph100%30.24 "HgN/A
7:50 AM36 °FPassing clouds.3 mph100%30.21 "HgN/A
7:20 AM36 °FPassing clouds.5 mph100%30.21 "HgN/A
6:50 AM34 °FPassing clouds.5 mph100%30.21 "Hg5 mi
6:20 AM36 °FPassing clouds.5 mph100%30.21 "Hg6 mi
5:50 AM36 °FPassing clouds.6 mph100%30.21 "Hg5 mi
5:20 AM36 °FPassing clouds.7 mph100%30.21 "Hg5 mi
4:50 AM36 °FOvercast.6 mph100%30.21 "Hg4 mi
4:20 AM34 °FFog.3 mph100%30.24 "Hg3 mi
3:50 AM34 °FFog.3 mph100%30.24 "Hg1 mi
3:20 AM36 °FPassing clouds.3 mph100%30.24 "Hg4 mi
Weather by CustomWeather, © 2014

See weather overviewHow to use our weather pages